FW6924 Weather Reports


Display with metric or nautical units.
time (UTC)temp
F
wind
direction
speed
MPH
gust
MPH
rain 1hr
in
rain 24hr
in
rain mn
in
humidity
%
barometer
mb
20260504185001 84 105 5.0 11.0 0.00 0.01 0.00 54 1012.5
20260504184003 85 103 5.0 10.0 0.00 0.01 0.00 54 1012.6
20260504183001 85 84 4.0 11.0 0.00 0.01 0.00 55 1013.0
20260504182003 85 78 5.0 10.0 0.00 0.01 0.00 54 1013.0
20260504181001 84 110 4.0 11.0 0.00 0.01 0.00 54 1013.0
20260504180005 85 105 5.0 11.0 0.00 0.01 0.00 55 1013.4
20260504175001 84 103 5.0 11.0 0.00 0.01 0.00 53 1013.3
20260504174001 83 98 5.0 11.0 0.00 0.01 0.00 54 1013.3
20260504171000 83 78 5.0 14.0 0.00 0.01 0.00 56 1013.9
20260504151001 80 344 4.0 13.0 0.00 0.01 0.00 58 1014.8
20260504141001 75 105 3.0 9.0 0.00 0.01 0.00 74 1014.7
20260504082002 67 347 1.0 4.0 0.00 0.01 0.00 89 1013.0
20260504080959 67 62 1.0 3.0 0.00 0.01 0.00 88 1013.0
20260504050005 69 61 0.0 1.0 0.00 0.01 0.00 87 1014.3
20260504045001 69 59 0.0 2.0 0.00 0.01 0.00 87 1014.5
20260504044003 69 61 0.0 0.0 0.00 0.01 0.00 87 1014.5
20260504043001 69 62 0.0 2.0 0.00 0.01 0.00 87 1014.5
20260504041001 69 44 0.0 2.0 0.00 0.01 0.00 87 1014.4
20260504040008 70 34 0.0 5.0 0.00 0.01 0.00 87 1014.3
20260504034001 70 98 1.0 4.0 0.00 0.01 0.01 87 1014.7
20260504033001 70 101 3.0 6.0 0.00 0.01 0.01 87 1014.6
20260504032001 69 68 1.0 6.0 0.00 0.01 0.01 87 1014.9
20260504024001 70 113 1.0 4.0 0.00 0.04 0.01 88 1014.9
20260504023003 70 107 2.0 4.0 0.00 0.04 0.01 88 1014.8
20260504021003 70 105 0.0 0.0 0.00 0.04 0.01 88 1014.9
20260504020004 70 106 1.0 4.0 0.00 0.04 0.01 88 1014.6
20260504014003 70 100 1.0 4.0 0.00 0.04 0.01 86 1014.5
20260504013001 71 107 0.0 3.0 0.00 0.04 0.01 86 1014.4
20260504012003 71 110 1.0 4.0 0.00 0.04 0.01 86 1014.3
20260504011001 71 112 0.0 2.0 0.00 0.04 0.01 85 1014.2
20260504010005 71 113 0.0 3.0 0.00 0.04 0.01 85 1014.1
20260504005000 71 113 1.0 3.0 0.00 0.05 0.01 84 1014.1
20260504004003 71 112 0.0 3.0 0.00 0.05 0.01 84 1013.9
20260504003001 71 82 0.0 2.0 0.00 0.05 0.01 84 1013.7
20260504001001 71 76 1.0 8.0 0.00 0.05 0.01 83 1013.3
20260504000005 71 97 1.0 4.0 0.00 0.05 0.01 84 1013.5
20260503235001 71 101 1.0 3.0 0.00 0.12 0.01 85 1013.3
20260503234003 71 105 1.0 4.0 0.00 0.12 0.01 86 1013.3
20260503233001 71 92 1.0 4.0 0.00 0.12 0.01 86 1013.4
20260503232003 71 129 2.0 4.0 0.00 0.12 0.01 86 1013.3
20260503231001 71 108 2.0 8.0 0.00 0.12 0.01 86 1013.3
20260503224003 72 114 3.0 7.0 0.00 0.13 0.01 85 1013.2
20260503223001 72 113 2.0 6.0 0.00 0.13 0.01 84 1013.2
20260503222003 72 104 4.0 8.0 0.00 0.13 0.01 83 1013.1
20260503220005 73 120 4.0 10.0 0.00 0.13 0.01 82 1013.1
20260503215001 73 102 5.0 9.0 0.00 0.35 0.01 81 1013.0
20260503214003 74 118 5.0 12.0 0.00 0.35 0.01 80 1013.0
20260503213001 74 101 4.0 12.0 0.00 0.35 0.01 80 1013.1
20260503212003 74 69 3.0 8.0 0.00 0.35 0.01 80 1013.3
20260503211001 73 92 3.0 8.0 0.00 0.35 0.01 82 1013.5
20260503210006 73 105 2.0 9.0 0.00 0.35 0.01 83 1013.5
20260503205001 72 80 4.0 10.0 0.00 0.35 0.01 83 1013.5
20260503204003 72 108 3.0 9.0 0.00 0.35 0.01 82 1013.6
20260503203001 72 111 3.0 9.0 0.00 0.35 0.01 82 1013.6
20260503202003 72 83 3.0 8.0 0.00 0.35 0.01 81 1013.7
20260503200006 72 97 3.0 9.0 0.00 0.35 0.01 81 1013.9
20260503195001 72 94 2.0 9.0 0.00 0.35 0.01 81 1013.9
20260503193001 72 31 3.0 11.0 0.01 0.35 0.01 83 1014.0
20260503192003 72 103 3.0 14.0 0.01 0.35 0.01 82 1014.1
20260503191001 72 80 3.0 11.0 0.01 0.35 0.01 84 1014.2
20260503190005 73 106 4.0 10.0 0.01 0.35 0.01 85 1014.4